Wetterdaten: aktuell Sonntag, 08.12.2019 00:40
Datum Zeit Temp. A. Feuchte A. Luftdruck Regen Wind Sonnenschein ET UV Solar Taupunkt Windben
08.12.2019 00:40 5,3 C 79 % 1015,3 hPa 0,0 l/m 14,9 km/h (3 Bft) 0 min 0,000 mm 0,0 UV-I 0 W/m 2,0 C 24,1 km/h (4 Bft)
07.12.2019 23:40 5,1 C 79 % 1015,4 hPa 0,0 l/m 15,6 km/h (3 Bft) 0 min 0,025 mm 0,0 UV-I 0 W/m 1,8 C 22,5 km/h (4 Bft)
07.12.2019 22:40 5,0 C 82 % 1015,6 hPa 0,0 l/m 14,5 km/h (3 Bft) 0 min 0,001 mm 0,0 UV-I 0 W/m 2,2 C 25,7 km/h (4 Bft)
07.12.2019 21:40 5,1 C 83 % 1015,6 hPa 0,0 l/m 17,3 km/h (3 Bft) 0 min 0,025 mm 0,0 UV-I 0 W/m 2,5 C 24,1 km/h (4 Bft)
07.12.2019 20:40 5,3 C 83 % 1015,8 hPa 0,0 l/m 18,8 km/h (3 Bft) 0 min 0,025 mm 0,0 UV-I 0 W/m 2,7 C 25,7 km/h (4 Bft)
07.12.2019 19:40 5,3 C 83 % 1015,1 hPa 0,0 l/m 19,2 km/h (3 Bft) 0 min 0,001 mm 0,0 UV-I 0 W/m 2,7 C 32,2 km/h (5 Bft)
07.12.2019 18:40 5,4 C 83 % 1015,2 hPa 0,0 l/m 18,4 km/h (3 Bft) 0 min 0,025 mm 0,0 UV-I 0 W/m 2,7 C 29,0 km/h (5 Bft)
07.12.2019 17:40 5,6 C 83 % 1014,5 hPa 0,0 l/m 14,5 km/h (3 Bft) 0 min 0,001 mm 0,0 UV-I 0 W/m 2,9 C 24,1 km/h (4 Bft)
07.12.2019 16:40 5,7 C 83 % 1014,0 hPa 0,0 l/m 16,2 km/h (3 Bft) 0 min 0,025 mm 0,0 UV-I 0 W/m 3,0 C 22,5 km/h (4 Bft)
07.12.2019 15:40 6,2 C 82 % 1013,6 hPa 0,0 l/m 18,4 km/h (3 Bft) 0 min 0,051 mm 0,0 UV-I 0 W/m 3,4 C 24,1 km/h (4 Bft)
07.12.2019 14:40 6,6 C 79 % 1012,7 hPa 0,0 l/m 21,5 km/h (4 Bft) 0 min 0,051 mm 0,0 UV-I 10 W/m 3,2 C 29,0 km/h (5 Bft)
07.12.2019 13:40 6,7 C 79 % 1012,5 hPa 0,0 l/m 17,6 km/h (3 Bft) 2 min 0,050 mm 0,0 UV-I 21 W/m 3,3 C 29,0 km/h (5 Bft)
07.12.2019 12:40 6,6 C 83 % 1012,0 hPa 0,0 l/m 14,5 km/h (3 Bft) 36 min 0,051 mm 0,0 UV-I 71 W/m 3,9 C 20,9 km/h (4 Bft)
07.12.2019 11:40 6,4 C 83 % 1012,0 hPa 0,0 l/m 16,3 km/h (3 Bft) 36 min 0,051 mm 0,0 UV-I 34 W/m 3,7 C 25,7 km/h (4 Bft)
07.12.2019 10:40 6,3 C 83 % 1011,7 hPa 0,0 l/m 21,1 km/h (4 Bft) 14 min 0,051 mm 0,0 UV-I 53 W/m 3,6 C 30,6 km/h (5 Bft)
07.12.2019 09:40 6,1 C 83 % 1010,8 hPa 0,0 l/m 24,8 km/h (4 Bft) 0 min 0,051 mm 0,0 UV-I 23 W/m 3,4 C 35,4 km/h (5 Bft)
07.12.2019 08:40 6,1 C 83 % 1010,5 hPa 0,0 l/m 23,8 km/h (4 Bft) 0 min 0,050 mm 0,0 UV-I 11 W/m 3,4 C 32,2 km/h (5 Bft)
07.12.2019 07:40 6,0 C 82 % 1009,8 hPa 0,0 l/m 25,7 km/h (4 Bft) 0 min 0,051 mm 0,0 UV-I 0 W/m 3,2 C 38,6 km/h (5 Bft)
07.12.2019 06:40 5,8 C 82 % 1008,9 hPa 0,0 l/m 28,7 km/h (4 Bft) 0 min 0,001 mm 0,0 UV-I 0 W/m 3,0 C 41,8 km/h (6 Bft)
07.12.2019 05:40 5,3 C 84 % 1008,7 hPa 0,0 l/m 21,5 km/h (4 Bft) 0 min 0,025 mm 0,0 UV-I 0 W/m 2,8 C 32,2 km/h (5 Bft)
07.12.2019 04:40 4,6 C 85 % 1008,7 hPa 0,0 l/m 14,8 km/h (3 Bft) 0 min 0,025 mm 0,0 UV-I 0 W/m 2,3 C 19,3 km/h (3 Bft)
07.12.2019 03:40 4,5 C 85 % 1008,5 hPa 0,0 l/m 16,5 km/h (3 Bft) 0 min 0,026 mm 0,0 UV-I 0 W/m 2,2 C 24,1 km/h (4 Bft)
07.12.2019 02:40 4,0 C 87 % 1008,6 hPa 1,0 l/m 18,9 km/h (3 Bft) 0 min 0,025 mm 0,0 UV-I 0 W/m 2,0 C 27,4 km/h (4 Bft)
07.12.2019 01:40 4,2 C 84 % 1008,7 hPa 0,6 l/m 27,4 km/h (4 Bft) 0 min 0,051 mm 0,0 UV-I 0 W/m 1,7 C 35,4 km/h (5 Bft)
07.12.2019 01:00 4,9 C 80 % 1008,8 hPa 0,0 l/m 22,6 km/h (4 Bft) 0 min 0,051 mm 0,0 UV-I 0 W/m 1,7 C 32,2 km/h (5 Bft)
_ Min-Zeit 01:56 00:18 03:00 - 00:00 - - - - 01:20 23:20
Minimum _ 3,9 C 78 % 1008,4 hPa - 10,0 km/h (2 Bft) - - - - 1,6 C 16,1 km/h (3 Bft)
_ Max-Zeit 13:52 02:18 21:00 01:30 06:34 10:24 01:00 01:00 12:02 12:08 07:10
Maximum _ 6,8 C 87 % 1015,9 hPa 0,2 l/m 32,3 km/h
SW (5 Bft)
2 min 0,051 mm 0,0 UV-I 113 W/m 3,9 C 51,5 km/h
SW (7 Bft)
Durchschnitt _ 5,5 C 83 % 1012,0 hPa #1,6 l/m 19,8 km/h (3 Bft) #0 min. #0,000 mm 0,0 UV-I 0 W/m 2,8 C 28,7 km/h (4 Bft)